STARLINK-37111, 68381

Orbit data source: Space-Track

STARLINK-37111, 68381 is a payload satellite owned by SpaceX/Seattle (US) in SSO that was launched on Thu, 26 Mar 2026 UTC via an FALCON 9 launch vehicle from the Air Force Western Test Range (AFWTR). Payload-class satellites include a variety of spacecraft equipped with specific instruments for various scientific and technological missions. These include communications satellites like Starlink; space stations such as the ISS; scientific satellites like the Hubble; Earth observation satellites from companies like Planet Labs, Umbra, and HawkEye 360; GPS; miniature CubeSats for education and research; and military/defense satellites.

Loading next visibility...
Identifier
68381, 2026-063B
Orbit
SSO
Country
Flag of USUS
Related business
Manufacturer
SpaceX/Seattle
Mission
Operational spacecraft
Bus & Motor
STARLINK V2MO, Unknown motor
Mass
575 kg wet, ~530 kg dry
Launch date (UTC)
2026-03-26 (2 weeks ago)
Launch vehicle
FALCON 9
Launch site
Air Force Western Test Range (AFWTR)
Object type
Payload
Rocket body
Debris
Shape & HBR
Unknown shape, 17.7 m
Radar Cross Section
RCS unknown

Expand to show TLE details & history
Last TLE update: 5 hours ago

TLE from 5 hours ago
0 STARLINK-37111
1 68381U 26063B   26102.32148510  .00249935  00000-0  12640-2 0  9995
2 68381  97.2837 243.7276 0001533 132.6601 227.4796 15.80894484  2938
Epoch: 2026-04-12T07:42Z
TLE epoch observation values (Epoch: 2026-04-12T07:42:56.312Z)
Latitude
-0.0001°
Longitude
-72.53513°
Altitude
331.781 km
Speed
7.709 km/s
True Right ascension
16h 14m 54s
True Declination
0° 00' 00"
Sunlit
Object was in full shadow at epoch
Visualization orbit readout
Latitude
Unknown
Longitude
Unknown
Altitude
Unknown
Speed
Unknown
Apparent Right ascension
Unknown
Apparent Declination
Unknown
Sunlit
N/A
Visualization observer readout
Local Sidereal Time
19:24:48
Azimuth
Unknown
Elevation
Unknown
Doppler factor
Unknown
Orbital elements
Apogee altitude
325.817 km
Perigee altitude
323.762 km
Semi-major axis
6,702.927 km
Eccentricity
0.00015
Inclination
97.2837°
RAAN
243.7276°
Arg. of periapsis
132.6601°
True anomaly
227.46665°
Mean anomaly
227.4796°
Eccentric anomaly
227.47313°
Mean motion
3.955 °/min
Orbital period
91.02 mins
BSTAR
0.001264
Loading maneuver chart data...
Computing Atmospheric mass density...
Loading historical data...
Loading historical data...
Loading historical data...
Loading historical data...
Loading historical data...
Loading historical data...
Loading historical data...

Documentation

Showing up to 5 results
|